Location: Newark
(13.8625°N, 100.5144°E)
Time: 11:45:27
(UTC+00:00)

Envisat - Pass Details

Date: 07 April 2020
Orbit: 764 x 766 km, 98.1° (Epoch: 02 June)

Event Time Altitude Azimuth Distance (km) Brightness Sun altitude
Rises 12:07:15 0° 197° (SSW) 3,219 6.3 -9.7°
Reaches altitude 10° 12:10:04 10° 212° (SSW) 2,294 5.8 -10.3°
Maximum altitude 12:13:50 21° 261° (W) 1,655 5.7 -11.2°
Drops below altitude 10° 12:17:37 10° 309° (NW) 2,297 6.5 -12.1°
Sets 12:20:27 0° 325° (NW) 3,223 7.0 -12.8°
